Location: Rounton
(54.4000°N, 1.3500°W)
Time: 08:44:29
(UTC+01:00)

A-11 Canister half - Pass Details

Date: 30 June 2022
Orbit: 1525 x 1683 km, 47.3° (Epoch: 16 August)

Event Time Altitude Azimuth Distance (km) Brightness Sun altitude
Rises 22:46:05 0° 277° (W) 4,719 12.2 -6.6°
Reaches altitude 10° 22:49:20 10° 271° (W) 3,720 11.5 -6.9°
Maximum altitude 22:57:57 44° 204° (SSW) 2,008 9.4 -7.5°
Drops below altitude 10° 23:06:32 10° 136° (SE) 3,693 10.4 -8.1°
Enters shadow 23:07:18 - 134° (SE) 3,926 10.5 -8.2°
